Regional Weather Roundup
Issued by NWS

Home | Current Version | Previous Version | Graphics & Text | Print | Product List | Glossary On
Versions: 1 2 3 4 5 6 7 8 9 10 11 12 13 14 15 16 17 18 19 20 21 22 23 24 25 26 27 28 29 30 31 32 33 34 35 36 37 38 39 40 41 42 43 44 45 46 47 48 49 50
000
ASUS43 KOAX 041610
RWRNE

WEATHER ROUNDUP FOR NEBRASKA
NATIONAL WEATHER SERVICE OMAHA NE
1100 AM CDT MON MAY 04 2015

NOTES: SATELLITE DATA IS BEING USED TO AUGMENT CLOUD COVER ABOVE
       12000 FEET.
       "FAIR" INDICATES FEW OR NO CLOUDS BELOW 12,000 FEET WITH NO
       SIGNIFICANT WEATHER AND/OR OBSTRUCTIONS TO VISIBILITY.

  * THESE STATIONS DO NOT REPORT WEATHER SUCH AS RAIN...SNOW OR FOG.

NEZ001>004-019>022-054>056-041700-
NEBRASKA PANHANDLE

CITY           SKY/WX    TMP DP  RH WIND       PRES   REMARKS
SCOTTSBLUFF    CLOUDY    51  41  68 SE8       30.16S
ALLIANCE       CLOUDY    51  32  48 E9        30.17R
CHADRON        CLOUDY    49  42  77 NE7       30.19R
KIMBALL        DRIZZLE   46  43  89 E7        30.15S
SIDNEY         CLOUDY    54  36  50 E9        30.17R
$$

NEZ057>060-069>072-079>082-041700-
SOUTHWEST NEBRASKA

CITY           SKY/WX    TMP DP  RH WIND       PRES   REMARKS
NORTH PLATTE   CLOUDY    57  32  38 E16       30.13F
IMPERIAL       CLOUDY    55  36  48 NE10      30.12F
LEXINGTON      CLOUDY    58  35  42 NE13G21   30.11R
MCCOOK         CLOUDY    59  42  53 NE14G23   30.09R
OGALLALA       CLOUDY    56  31  37 E15G21    30.15R
$$

NEZ005>010-023>029-035>040-094-041700-
NORTH CENTRAL NEBRASKA

CITY           SKY/WX    TMP DP  RH WIND       PRES   REMARKS
VALENTINE      CLOUDY    60  23  24 E21       30.18R
AINSWORTH      CLOUDY    58  25  27 E14G25    30.17S
BROKEN BOW     CLOUDY    60  30  32 NE14      30.13S
O`NEILL        CLOUDY    62  32  32 NE16      30.17R
ORD            CLOUDY    60  28  29 NE15      30.12R
THEDFORD       CLOUDY    59  27  29 E13G20    30.18R
$$

NEZ041-046>049-061>064-073>077-083>087-041700-
SOUTH CENTRAL NEBRASKA

CITY           SKY/WX    TMP DP  RH WIND       PRES   REMARKS
GRAND ISLAND   LGT RAIN  57  40  52 E8        30.11R
AURORA         LGT RAIN  56  44  63 E10       30.08R
HASTINGS       CLOUDY    56  47  71 E16       30.08S
HEBRON         CLOUDY    62  55  75 E10       30.04R
HOLDREGE       CLOUDY    56  44  62 NE14      30.08S
KEARNEY *      CLOUDY    57  34  41 NE12G26   30.10S
YORK           LGT RAIN  55  46  71 E8        30.10R
$$

NEZ011>018-030>034-042>045-041700-
NORTHEAST NEBRASKA

CITY           SKY/WX    TMP DP  RH WIND       PRES   REMARKS
NORFOLK        CLOUDY    64  39  39 NE12      30.12S
ALBION         PTSUNNY   61  33  35 NE17      30.11S
BLAIR          CLOUDY    60  47  63 N12       30.08F
COLUMBUS *     CLOUDY    59  41  51 NE23G29   30.06F
FREMONT        CLOUDY    61  45  56 NE15      30.06F
TEKAMAH        CLOUDY    65  43  44 NE13      30.12R
WAYNE          PTSUNNY   65  38  37 E14       30.14S
$$

NEZ050>053-065>068-078-088>093-041700-
SOUTHEAST NEBRASKA

CITY           SKY/WX    TMP DP  RH WIND       PRES   REMARKS
LINCOLN        CLOUDY    62  53  72 E20G25    30.05S
OMAHA EPPLEY   CLOUDY    62  51  67 N9        30.08S
BEATRICE       CLOUDY    62  56  83 E12       30.01S
FALLS CITY     PTSUNNY   70  59  68 CALM      30.05R
NEBRASKA CITY  TSTM      60  58  94 NE9       30.07R
PLATTSMOUTH    CLOUDY    61  53  75 NE9G16    30.08R THUNDER
$$

NEZ044-045-051>053-067-041700-
OMAHA AREA

CITY           SKY/WX    TMP DP  RH WIND       PRES   REMARKS
OMAHA EPPLEY   CLOUDY    62  51  67 N9        30.08S
BLAIR          CLOUDY    60  47  63 N12       30.08F
FREMONT        CLOUDY    61  45  56 NE15      30.06F
MILLARD        CLOUDY    61  51  70 N5        30.07F
OFFUTT AFB     CLOUDY    62  52  69 N10       30.06F
PLATTSMOUTH    CLOUDY    61  53  75 NE9G16    30.08R THUNDER
$$



USA.gov is the U.S. government's official web portal to all federal, state and local government web resources and services.